Regional Weather Roundup
Issued by NWS New Orleans/Baton Rouge, LA

Home | Current Version | Previous Version | Text Only | Print | Product List | Glossary On
Versions: 1 2 3 4 5 6 7 8 9 10 11 12 13 14 15 16 17 18 19 20 21 22 23 24 25 26 27 28 29 30 31 32 33 34 35 36 37 38 39 40 41 42 43 44 45 46 47 48 49 50
224
ASUS44 KLIX 080613
RWRLIX
NEW ORLEANS REGIONAL WEATHER ROUNDUP
NATIONAL WEATHER SERVICE NEW ORLEANS LA
1200 AM CST THU DEC 08 2016

NOTE: "FAIR" INDICATES FEW OR NO CLOUDS BELOW 12,000 FEET WITH NO
      SIGNIFICANT WEATHER AND/OR OBSTRUCTIONS TO VISIBILITY.
      SKY/WX - SKY CONDITION AND SIGNIFICANT WEATHER.
      TMP - AIR TEMPERATURE.     DP    - DEWPOINT TEMPERATURE.
      RH  - RELATIVE HUMIDITY.   PRES  - PRESSURE.
      HI  - HEAT INDEX.          WCI   - WIND CHILL INDEX.

*  THESE STATIONS ARE NOT NWS OR FAA STATIONS AND ARE NOT UNDER
   NWS QUALITY CONTROL.

LAZ038-040-048-061>063-065>067-069-080700-
SOUTHEAST LOUISIANA

CITY           SKY/WX    TMP DP  RH WIND       PRES   REMARKS
N.O. AUDUBON   NOT AVBL
N.O. INTL ARPT CLOUDY    58  56  93 N9        30.18S
6HR MIN TEMP:  57; 6HR MAX TEMP:  61;

N.O. LAKEFRONT CLOUDY    59  55  87 N14       30.19S
6HR MIN TEMP:  59; 6HR MAX TEMP:  61;

N.O. DOWNTOWN*   N/A     59  54  83 VRB7      30.19R
6HR MIN TEMP:  59; 6HR MAX TEMP:  62;

RESERVE*       CLOUDY    58  56  91 N5        30.19S
6HR MIN TEMP:  58; 6HR MAX TEMP:  61;

SLIDELL        CLOUDY    57  53  86 N5        30.18S
6HR MIN TEMP:  57; 6HR MAX TEMP:  60;

BATON ROUGE    CLEAR     53  51  93 NE5       30.16F
6HR MIN TEMP:  52; 6HR MAX TEMP:  59;

BOOTHVILLE     CLOUDY    59  59 100 NE8       30.16S
6HR MIN TEMP:  59; 6HR MAX TEMP:  60;

BELLE CHASSE   CLOUDY    60  56  86 N5        30.17S
6HR MIN TEMP:  60; 6HR MAX TEMP:  61;

BOGALUSA*        N/A     53  50  90 CALM      30.21R
6HR MIN TEMP:  53; 6HR MAX TEMP:  58;

GALLIANO*      CLOUDY    61  55  82 NE7       30.16S
6HR MIN TEMP:  61; 6HR MAX TEMP:  64;

NEW ROADS*       N/A     50  49  97 N6        30.18S
6HR MIN TEMP:  50; 6HR MAX TEMP:  55;

GONZALES*      MOCLDY    55  54  95 CALM      30.17F FOG
6HR MIN TEMP:  55; 6HR MAX TEMP:  59;

HAMMOND*       MOCLDY    54  50  87 CALM      30.18F
HOUMA*         CLOUDY    59  57  93 N6        30.17S FOG
6HR MIN TEMP:  58; 6HR MAX TEMP:  64;

PORT FOURCHON* CLOUDY    63  57  82 NE12      30.15S

$$

MSZ070-080>082-080700-
SOUTHERN MISSISSIPPI

CITY           SKY/WX    TMP DP  RH WIND       PRES   REMARKS
MCCOMB         CLEAR     50  46  86 VRB6      30.17F
6HR MIN TEMP:  50; 6HR MAX TEMP:  54;

GULFPORT       CLOUDY    59  52  77 N7        30.17S
6HR MIN TEMP:  59; 6HR MAX TEMP:  61;

BILOXI         CLOUDY    58  53  81 N7        30.17R
6HR MIN TEMP:  58; 6HR MAX TEMP:  61;

PASCAGOULA     CLOUDY    58  51  78 N6        30.17S
6HR MIN TEMP:  58; 6HR MAX TEMP:  61;


$$

COASTAL OBSERVATIONS
LAKE AND NEARSHORE STATIONS

STATION/POSITION TIME  TEMP    WIND        PRES    WAVE
                       AIR SEA DIR/SP/G            HT/PER
                 (UTC) (F)     (DEG/KT/KT) (MB)    (FT/S)
PASCAGOULA       0536          360/  5/  7 1021.2
WAVELAND YACHT   0548          360/  8/  9 1022.1
GRAND ISLE       0536      68   60/  7/ 10 1021.1
SOUTHWEST PASS   0536           50/  6/  8   N/A
NEW CANAL        0536      62   20/  9/ 11 1021.2
SHELL BEACH      0536      63  360/ 10/ 12 1021.7

OFFSHORE STATIONS

STATION/POSITION TIME  TEMP    WIND        PRES    WAVE
                       AIR SEA DIR/SP/G            HT/PER
                 (UTC) (F)     (DEG/KT/KT) (MB)    (FT/S)

$$





USA.gov is the U.S. government's official web portal to all federal, state and local government web resources and services.